Weather observations for the past three days for
Pine River Regional Airport
Imperial (Metric)
Date Time (cdt) Wind (mph) Vis. (mi.) Weather Sky Cond. Temperature (ºF) Relative Humidity Wind Chill (°F) Heat Index (°F) Pressure Precipitation (in)
Air Dwpt 6 hour altimeter (in) sea level (mb) 1 hr 3 hr 6 hr
Max. Min.
25 02:55 NW 3 10.00 NULL NULL 69.8 57.2 64% 29.71 0.0
25 02:35 NW 5 10.00 NULL NULL 69.8 57.2 64% 29.71 0.0
25 02:16 NW 6 10.00 NULL NULL 71.6 60.8 69% 29.7 0.0
25 01:55 NW 3 10.00 Fair CLR 71.6 60.8 69% 29.68 0.0
25 01:35 NW 7 10.00 Partly Cloudy SCT035 71.6 64.4 78% 29.67 0.0
25 01:15 NW 3 10.00 Mostly Cloudy BKN035 71.6 66.2 83% 29.67 0.0
25 00:55 NW 3 10.00 Partly Cloudy SCT033 SCT039 69.8 66.2 88% 29.65 0.0
25 00:35 NW 3 10.00 Fair CLR 69.8 66.2 88% 29.65 0.0
25 00:15 N 3 10.00 Fair CLR 69.8 66.2 88% 29.65 0.0
24 23:56 Calm 10.00 Fair CLR 68 66.2 94% 29.65 0.0
24 23:35 Calm 10.00 Fair CLR 69.8 66.2 88% 29.67 0.0
24 23:15 Calm 10.00 Partly Cloudy SCT049 69.8 66.2 88% 29.68 0.0
24 22:55 Calm 10.00 Partly Cloudy SCT049 71.6 66.2 83% 29.69 0.0
24 22:35 Calm 10.00 Mostly Cloudy BKN049 73.4 68 83% 29.69 0.0
24 22:15 Calm 10.00 Overcast OVC049 73.4 66.2 78% 29.69 0.0
24 21:55 Calm 10.00 Partly Cloudy SCT047 75.2 66.2 74% 77 29.69 0.0
24 21:36 Calm 10.00 Partly Cloudy SCT041 75.2 66.2 74% 77 29.68 0.0
24 21:15 S 5 10.00 Thunderstorm in Vicinity BKN037 OVC045 75.2 68 78% 76 29.66 0.0
24 20:55 Calm 10.00 Overcast OVC033 77 68 74% 79 29.67 0.0
24 20:35 Calm 10.00 Partly Cloudy SCT035 77 68 74% 79 29.68 0.0
24 20:15 SW 3 10.00 Fair CLR 78.8 68 70% 81 29.68 0.0
24 19:55 S 8 10.00 Fair CLR 78.8 68 70% 81 29.66 0.0
24 19:35 S 9 10.00 Fair CLR 80.6 68 66% 83 29.66 0.0
24 19:16 S 8 10.00 Fair CLR 80.6 68 66% 83 29.67 0.0
24 18:55 S 10 G 17 10.00 Fair CLR 80.6 68 66% 83 29.68 0.0
24 18:35 S 13 G 17 10.00 Fair CLR 80.6 66.2 62% 83 29.69 0.0
24 18:15 S 12 10.00 Fair CLR 80.6 66.2 62% 83 29.68 0.0
24 17:55 S 13 10.00 Fair CLR 80.6 66.2 62% 83 29.69 0.0
24 17:35 S 9 G 20 10.00 Fair CLR 78.8 66.2 65% 81 29.69 0.0
24 17:15 S 16 G 21 10.00 Fair CLR 80.6 66.2 62% 83 29.69 0.0
24 16:56 S 17 G 25 10.00 Fair CLR 80.6 66.2 62% 83 29.69 0.0
24 16:35 S 16 G 21 10.00 Fair CLR 78.8 66.2 65% 81 29.69 0.0
24 16:15 S 12 10.00 Light Rain CLR 75.2 66.2 74% 77 29.71 0.0
24 15:55 S 12 10.00 Fair CLR 73.4 64.4 74% 29.7 0.0
24 15:35 S 14 10.00 Light Rain CLR 73.4 66.2 78% 29.72 0.0
24 15:15 S 10 10.00 Light Rain CLR 75.2 64.4 69% 77 29.74 0.0
24 14:56 S 9 10.00 Fair CLR 75.2 64.4 69% 77 29.76 0.0
24 14:35 S 10 10.00 Fair CLR 75.2 64.4 69% 77 29.79 0.0
24 14:15 SE 13 G 16 10.00 Fair CLR 75.2 64.4 69% 77 29.77 0.0
24 13:55 S 12 10.00 Fair CLR 73.4 64.4 74% 29.77 0.0
24 13:35 SE 10 10.00 Fair CLR 73.4 64.4 74% 29.79 0.0
24 13:15 SE 9 10.00 Fair CLR 73.4 64.4 74% 29.79 0.0
24 12:55 E 8 10.00 NULL NULL 71.6 64.4 78% 29.81 0.0
24 12:36 E 7 10.00 NULL NULL 71.6 64.4 78% 29.82 0.0
24 12:15 E 6 10.00 Light Rain NULL 69.8 62.6 78% 29.84 0.0
24 11:55 E 10 10.00 Light Rain SCT014 SCT023 66.2 62.6 88% 29.82 0.0
24 11:35 SE 6 10.00 Light Rain SCT050 69.8 62.6 78% 29.9 0.0
24 11:15 Calm 10.00 Light Rain SCT050 BKN060 71.6 60.8 69% 29.92 0.0
24 10:55 Calm 10.00 Partly Cloudy SCT050 71.6 62.6 73% 29.91 0.0
24 10:35 S 3 10.00 Fair CLR 71.6 60.8 69% 29.9 0.0
24 10:16 S 9 10.00 Fair CLR 73.4 60.8 65% 29.87 0.0
24 09:55 S 12 G 16 10.00 Fair CLR 73.4 60.8 65% 29.86 0.0
24 09:35 S 12 10.00 Fair CLR 71.6 60.8 69% 29.87 0.0
24 09:15 S 8 10.00 Fair CLR 69.8 60.8 73% 29.88 0.0
24 08:55 S 8 10.00 Fair CLR 69.8 60.8 73% 29.88 0.0
24 08:35 SE 7 10.00 Fair CLR 68 60.8 78% 29.89 0.0
24 08:15 S 3 10.00 Fair CLR 68 60.8 78% 29.9 0.0
24 07:56 S 5 10.00 Fair CLR 66.2 60.8 83% 29.91 0.0
24 07:35 Calm 10.00 Fair CLR 64.4 60.8 88% 29.9 0.0
24 07:15 Calm 10.00 Fair CLR 62.6 59 88% 29.88 0.0
24 06:55 Calm 10.00 Fair CLR 60.8 57.2 88% 29.88 0.0
24 06:35 Calm 10.00 Fair CLR 59 57.2 94% 29.88 0.0
24 06:15 Calm 10.00 Fair CLR 57.2 55.4 94% 29.88 0.0
24 05:55 Calm 10.00 Fair CLR 57.2 55.4 94% 29.88 0.0
24 05:36 Calm 10.00 Fair CLR 55.4 55.4 100% 29.88 0.0
24 05:15 Calm 10.00 Fair CLR 55.4 55.4 100% 29.88 0.0
24 04:55 Calm 10.00 Fair CLR 55.4 53.6 94% 29.89 0.0
24 04:35 Calm 10.00 Fair CLR 55.4 53.6 94% 29.89 0.0
24 04:15 Calm 10.00 Fair CLR 55.4 53.6 94% 29.89 0.0
24 03:55 Calm 10.00 Fair CLR 55.4 53.6 94% 29.9 0.0
24 03:35 Calm 10.00 Fair CLR 55.4 53.6 94% 29.9 0.0
24 03:16 Calm 10.00 Fair CLR 53.6 53.6 100% 29.9 0.0
24 02:55 Calm 10.00 Fair CLR 55.4 53.6 94% 29.91 0.0
24 02:35 Calm 10.00 Fair CLR 55.4 53.6 94% 29.91 0.0
24 02:15 Calm 10.00 Fair CLR 55.4 53.6 94% 29.91 0.0
24 01:55 Calm 10.00 Fair CLR 55.4 53.6 94% 29.92 0.0
24 01:35 Calm 10.00 Fair CLR 55.4 55.4 100% 29.92 0.0
24 01:15 Calm 10.00 Fair CLR 57.2 55.4 94% 29.93 0.0
24 00:56 Calm 10.00 Fair CLR 57.2 55.4 94% 29.93 0.0
24 00:35 Calm 10.00 Fair CLR 57.2 55.4 94% 29.93 0.0
24 00:15 Calm 10.00 Fair CLR 59 55.4 88% 29.94 0.0
23 23:55 Calm 10.00 Fair CLR 59 57.2 94% 29.93 0.0
23 23:35 Calm 10.00 Fair CLR 59 57.2 94% 29.93 0.0
23 23:15 Calm 10.00 Fair CLR 60.8 57.2 88% 29.93 0.0
23 22:55 Calm 10.00 Fair CLR 60.8 57.2 88% 29.92 0.0
23 22:36 Calm 10.00 Fair CLR 62.6 59 88% 29.92 0.0
23 22:15 Calm 10.00 Fair CLR 62.6 60.8 94% 29.92 0.0
23 21:55 Calm 10.00 Fair CLR 64.4 59 83% 29.92 0.0
23 21:35 Calm 10.00 Fair CLR 64.4 59 83% 29.91 0.0
23 21:15 Calm 10.00 Fair CLR 66.2 59 78% 29.91 0.0
23 20:55 Calm 10.00 Fair CLR 69.8 59 69% 29.91 0.0
23 20:35 Calm 10.00 Fair CLR 71.6 57.2 61% 29.91 0.0
23 19:35 NE 6 10.00 Partly Cloudy SCT060 73.4 57.2 57% 29.91 0.0
23 18:55 NW 6 10.00 Fair CLR 75.2 57.2 54% 78 29.9 0.0
23 18:35 NE 5 10.00 Partly Cloudy SCT060 75.2 57.2 54% 78 29.9 0.0
23 18:15 N 6 10.00 Mostly Cloudy BKN070 77 57.2 51% 79 29.9 0.0
23 17:56 NW 8 10.00 Partly Cloudy SCT060 77 55.4 47% 79 29.9 0.0
23 17:35 N 8 10.00 Partly Cloudy SCT060 78.8 55.4 45% 79 29.89 0.0
23 17:15 NW 6 10.00 Fair CLR 77 55.4 47% 79 29.89 0.0
23 16:55 N 8 10.00 Partly Cloudy SCT060 78.8 55.4 45% 79 29.89 0.0
23 16:35 NW 7 10.00 Partly Cloudy SCT060 78.8 55.4 45% 79 29.89 0.0
23 16:15 NW 9 10.00 Partly Cloudy SCT075 77 55.4 47% 79 29.89 0.0
23 15:55 NW 9 10.00 Partly Cloudy SCT060 SCT075 78.8 55.4 45% 79 29.89 0.0
23 15:36 NW 9 10.00 Partly Cloudy SCT060 77 57.2 51% 79 29.88 0.0
23 15:15 NW 12 G 16 10.00 Partly Cloudy SCT050 77 55.4 47% 79 29.88 0.0
23 14:55 NW 9 G 16 10.00 Partly Cloudy SCT050 77 57.2 51% 79 29.88 0.0
23 14:35 NW 7 10.00 Mostly Cloudy SCT050 BKN070 75.2 57.2 54% 78 29.88 0.0
23 14:15 NW 8 10.00 Partly Cloudy SCT050 77 57.2 51% 79 29.88 0.0
23 13:55 W 7 10.00 Fair CLR 77 57.2 51% 79 29.88 0.0
23 13:35 NW 7 G 16 10.00 Partly Cloudy SCT075 SCT085 75.2 57.2 54% 78 29.88 0.0
23 13:16 NW 8 10.00 Partly Cloudy SCT090 75.2 59 57% 78 29.88 0.0
23 12:55 NW 8 10.00 Fair CLR 75.2 59 57% 78 29.88 0.0
23 12:35 NW 9 10.00 Partly Cloudy SCT060 SCT080 73.4 59 61% 29.89 0.0
23 12:15 NW 8 10.00 Partly Cloudy SCT080 73.4 60.8 65% 29.88 0.0
23 11:55 W 3 10.00 Partly Cloudy SCT048 SCT055 SCT090 75.2 60.8 61% 77 29.88 0.0
23 11:35 NW 7 10.00 Partly Cloudy SCT047 SCT065 73.4 60.8 65% 29.88 0.0
23 11:15 NW 7 10.00 Partly Cloudy SCT029 SCT043 SCT060 73.4 60.8 65% 29.89 0.0
23 10:56 W 7 10.00 Mostly Cloudy SCT029 SCT034 BKN043 71.6 60.8 69% 29.89 0.0
23 10:35 NW 5 10.00 Partly Cloudy SCT027 71.6 60.8 69% 29.89 0.0
23 10:15 NW 7 10.00 Fair CLR 71.6 60.8 69% 29.88 0.0
23 09:55 NW 6 10.00 Fair CLR 71.6 60.8 69% 29.88 0.0
23 09:35 W 3 10.00 Fair CLR 69.8 62.6 78% 29.88 0.0
23 09:15 W 3 10.00 Fair CLR 69.8 60.8 73% 29.88 0.0
23 08:55 W 3 10.00 NULL NULL 68 62.6 83% 29.88 0.0
23 08:36 W 6 10.00 NULL NULL 66.2 60.8 83% 29.89 0.0
23 08:15 W 3 10.00 NULL NULL 64.4 60.8 88% 29.88 0.0
23 07:55 Calm 10.00 Overcast OVC004 62.6 60.8 94% 29.88 0.0
23 07:35 Calm 10.00 Overcast OVC004 60.8 60.8 100% 29.88 0.0
23 07:15 Calm 10.00 Overcast OVC004 60.8 57.2 88% 29.88 0.0
23 06:55 Calm 10.00 Overcast BKN004 OVC012 59 57.2 94% 29.88 0.0
23 06:35 Calm 10.00 Overcast OVC006 57.2 55.4 94% 29.88 0.0
23 06:16 Calm 10.00 Overcast OVC006 57.2 55.4 94% 29.88 0.0
23 05:55 Calm 10.00 Overcast BKN004 OVC009 57.2 55.4 94% 29.88 0.0
23 05:35 Calm 10.00 Overcast OVC004 57.2 53.6 88% 29.88 0.0
23 05:15 Calm 10.00 Overcast BKN006 BKN015 OVC023 57.2 53.6 88% 29.88 0.0
23 04:55 Calm 10.00 Overcast OVC017 57.2 53.6 88% 29.88 0.0
23 04:35 Calm 10.00 Overcast OVC017 55.4 55.4 100% 29.88 0.0
23 04:15 Calm 10.00 Mostly Cloudy SCT021 BKN026 BKN036 55.4 53.6 94% 29.88 0.0
23 03:56 Calm 10.00 Mostly Cloudy SCT025 BKN038 55.4 53.6 94% 29.88 0.0
23 03:35 Calm 10.00 Mostly Cloudy BKN025 BKN040 57.2 53.6 88% 29.88 0.0
23 03:15 Calm 10.00 Overcast BKN025 OVC033 57.2 53.6 88% 29.88 0.0
23 02:55 Calm 10.00 Partly Cloudy SCT023 SCT033 57.2 53.6 88% 29.89 0.0
23 02:35 Calm 10.00 Mostly Cloudy BKN025 BKN035 57.2 55.4 94% 29.89 0.0
23 02:15 Calm 10.00 Overcast OVC027 57.2 55.4 94% 29.89 0.0
23 01:55 Calm 10.00 Overcast OVC027 59 55.4 88% 29.9 0.0
23 01:36 Calm 10.00 Overcast BKN027 OVC075 57.2 55.4 94% 29.9 0.0
23 01:15 Calm 10.00 Overcast SCT027 SCT047 OVC075 57.2 55.4 94% 29.89 0.0
23 00:55 Calm 10.00 Overcast OVC027 57.2 55.4 94% 29.91 0.0
23 00:35 Calm 10.00 NULL NULL 57.2 55.4 94% 29.9 0.0
23 00:15 Calm 10.00 NULL NULL 57.2 55.4 94% 29.9 0.0
22 23:55 SE 3 10.00 Mostly Cloudy BKN024 BKN042 59 55.4 88% 29.91 0.0
22 23:35 SE 3 10.00 Overcast OVC024 59 55.4 88% 29.91 0.0
22 23:16 Calm 10.00 Overcast OVC026 59 55.4 88% 29.92 0.0
22 22:55 Calm 10.00 Overcast OVC026 59 55.4 88% 29.91 0.0
22 22:35 E 3 10.00 NULL NULL 60.8 55.4 83% 29.91 0.0
22 22:15 E 7 10.00 Overcast OVC023 59 57.2 94% 29.91 0.0
22 21:55 E 3 7.00 Light Drizzle OVC019 60.8 59 94% 29.91 0.0
22 21:35 Calm 7.00 Drizzle OVC017 60.8 60.8 100% 29.9 0.0
22 21:15 E 6 10.00 Drizzle NULL 62.6 60.8 94% 29.89 0.0
22 20:56 E 8 10.00 NULL NULL 62.6 60.8 94% 29.89 0.0
22 20:35 Calm 10.00 NULL NULL 64.4 62.6 94% 29.89 0.0
22 20:15 Calm 10.00 NULL NULL 64.4 62.6 94% 29.89 0.0
22 19:55 Calm 10.00 NULL NULL 64.4 62.6 94% 29.88 0.0
22 19:35 Calm 10.00 NULL NULL 64.4 62.6 94% 29.88 0.0
22 19:15 Calm 10.00 NULL NULL 64.4 62.6 94% 29.88 0.0
22 18:55 Calm 3.00 Rain NULL 64.4 62.6 94% 29.88 0.0
22 18:36 Calm 10.00 NULL NULL 64.4 62.6 94% 29.88 0.0
22 18:15 Calm 10.00 Light Drizzle NULL 64.4 62.6 94% 29.89 0.0
22 17:55 Calm 10.00 Light Drizzle NULL 62.6 62.6 100% 29.88 0.0
22 17:35 Calm 10.00 Light Rain NULL 64.4 62.6 94% 29.89 0.0
22 17:15 Calm 10.00 Light Rain NULL 64.4 62.6 94% 29.89 0.0 0.01
22 16:55 Calm 10.00 Rain NULL 64.4 62.6 94% 29.88 0.0
22 16:35 Calm 10.00 Light Rain SCT060 64.4 62.6 94% 29.89 0.0
22 16:16 Calm 10.00 Light Rain NULL 64.4 62.6 94% 29.89 0.0
22 15:55 NE 3 10.00 Light Rain NULL 64.4 60.8 88% 29.89 0.0
22 15:35 Calm 7.00 Drizzle NULL 64.4 60.8 88% 29.89 0.0
22 15:15 N 3 10.00 Light Drizzle NULL 64.4 60.8 88% 29.88 0.0
22 14:55 NE 3 10.00 Light Rain NULL 64.4 60.8 88% 29.88 0.0
22 14:35 NE 3 10.00 Light Rain NULL 64.4 60.8 88% 29.89 0.0
22 14:15 Calm 10.00 Drizzle NULL 64.4 60.8 88% 29.9 0.0
22 13:56 N 3 10.00 Light Rain NULL 64.4 60.8 88% 29.9 0.0
22 13:35 Calm 10.00 NULL NULL 64.4 59 83% 29.91 0.0
22 13:15 E 5 10.00 NULL NULL 64.4 59 83% 29.9 0.0
22 12:55 NE 6 10.00 NULL NULL 64.4 59 83% 29.9 0.0
22 12:35 Calm 10.00 NULL NULL 62.6 59 88% 29.91 0.0
22 12:15 NE 3 5.00 Fog/Mist NULL 62.6 59 88% 29.92 0.0
22 11:55 NE 5 10.00 NULL NULL 62.6 59 88% 29.92 0.0
22 11:36 E 6 10.00 NULL NULL 64.4 59 83% 29.92 0.0
22 11:15 E 5 10.00 NULL NULL 64.4 59 83% 29.92 0.0
22 10:55 NE 6 10.00 NULL NULL 62.6 59 88% 29.91 0.0
22 10:35 E 6 10.00 NULL NULL 62.6 59 88% 29.92 0.0
22 10:15 E 3 7.00 NULL NULL 62.6 59 88% 29.93 0.0
22 09:55 E 7 10.00 NULL NULL 62.6 59 88% 29.93 0.0
22 09:35 NE 7 7.00 NULL NULL 60.8 57.2 88% 29.94 0.0
22 09:16 E 8 7.00 NULL NULL 60.8 57.2 88% 29.94 0.0
22 08:55 E 8 10.00 NULL NULL 60.8 57.2 88% 29.94 0.0
22 08:35 E 7 10.00 NULL NULL 60.8 57.2 88% 29.94 0.0
22 08:15 NE 8 10.00 NULL NULL 60.8 57.2 88% 29.94 0.0
22 07:55 NE 7 10.00 Overcast OVC008 60.8 57.2 88% 29.95 0.0
22 07:35 NE 5 3.00 Fog/Mist NULL 60.8 57.2 88% 29.95 0.0
22 07:15 NE 3 5.00 Fog/Mist NULL 60.8 57.2 88% 29.96 0.0
22 06:56 NE 5 10.00 NULL NULL 60.8 57.2 88% 29.96 0.0
22 06:35 Calm 10.00 NULL NULL 60.8 57.2 88% 29.97 0.0
22 06:15 NE 3 10.00 NULL NULL 60.8 59 94% 29.96 0.0
22 05:55 Calm 4.00 Drizzle NULL 60.8 57.2 88% 29.97 0.0
22 05:35 NE 3 3.00 Fog/Mist NULL 60.8 57.2 88% 29.96 0.0
22 05:15 NE 3 5.00 Fog/Mist NULL 60.8 57.2 88% 29.97 0.0
22 04:55 NE 6 7.00 NULL NULL 60.8 57.2 88% 29.98 0.0
22 04:36 NE 5 10.00 NULL NULL 60.8 57.2 88% 29.98 0.0
22 04:15 NE 5 10.00 NULL NULL 60.8 57.2 88% 29.99 0.0
22 03:55 NE 3 10.00 NULL NULL 60.8 57.2 88% 30 0.0
22 03:35 NE 3 10.00 NULL NULL 60.8 57.2 88% 30 0.0
22 03:15 NE 5 10.00 NULL NULL 60.8 57.2 88% 30 0.0
Date Time (cdt) Wind (mph) Vis. (mi.) Weather Sky Cond. Air Dwpt Max. Min. Relative Humidity Wind Chill (°F) Heat Index (°F) altimeter (in) sea level (mb) 1 hr 3 hr 6 hr
6 hour
Temperature (ºF) Pressure Precipitation (in)